TimeCDT,TemperatureF,Dew PointF,Humidity,Sea Level PressureIn,VisibilityMPH,Wind Direction,Wind SpeedMPH,Gust SpeedMPH,PrecipitationIn,Events,Conditions,WindDirDegrees,DateUTC
12:15 AM,33.8,26.6,75,30.31,10.0,Calm,Calm,-,N/A,,Clear,0,2012-10-27 05:15:00
12:35 AM,33.8,26.6,75,30.31,10.0,Calm,Calm,-,N/A,,Clear,0,2012-10-27 05:35:00
12:55 AM,32.0,26.6,80,30.31,10.0,Calm,Calm,-,N/A,,Clear,0,2012-10-27 05:55:00
1:15 AM,32.0,26.6,80,30.31,10.0,Calm,Calm,-,N/A,,Clear,0,2012-10-27 06:15:00
1:35 AM,32.0,26.6,80,30.31,10.0,Calm,Calm,-,N/A,,Clear,0,2012-10-27 06:35:00
1:55 AM,30.2,28.4,93,30.31,10.0,Calm,Calm,-,N/A,,Clear,0,2012-10-27 06:55:00
2:15 AM,30.2,28.4,93,30.30,10.0,Calm,Calm,-,N/A,,Clear,0,2012-10-27 07:15:00
2:35 AM,30.2,28.4,93,30.31,10.0,Calm,Calm,-,N/A,,Clear,0,2012-10-27 07:35:00
3:15 AM,32.0,26.6,80,30.30,10.0,WNW,4.6,-,N/A,,Clear,290,2012-10-27 08:15:00
3:35 AM,30.2,26.6,86,30.30,10.0,NW,3.5,-,N/A,,Clear,310,2012-10-27 08:35:00
3:55 AM,32.0,26.6,80,30.30,10.0,Calm,Calm,-,N/A,,Clear,0,2012-10-27 08:55:00
4:15 AM,32.0,26.6,80,30.30,10.0,Calm,Calm,-,N/A,,Clear,0,2012-10-27 09:15:00
4:35 AM,32.0,26.6,80,30.30,10.0,NW,3.5,-,N/A,,Clear,310,2012-10-27 09:35:00
4:55 AM,32.0,26.6,80,30.30,10.0,Calm,Calm,-,N/A,,Clear,0,2012-10-27 09:55:00
5:15 AM,32.0,26.6,80,30.30,10.0,Calm,Calm,-,N/A,,Clear,0,2012-10-27 10:15:00
5:55 AM,30.2,24.8,80,30.30,10.0,Calm,Calm,-,N/A,,Clear,0,2012-10-27 10:55:00
6:15 AM,28.4,26.6,93,30.31,10.0,Calm,Calm,-,N/A,,Clear,0,2012-10-27 11:15:00
6:35 AM,30.2,26.6,86,30.31,10.0,WNW,3.5,-,N/A,,Clear,290,2012-10-27 11:35:00
6:55 AM,30.2,24.8,80,30.31,10.0,Calm,Calm,-,N/A,,Clear,0,2012-10-27 11:55:00
7:15 AM,30.2,24.8,80,30.33,10.0,Calm,Calm,-,N/A,,Clear,0,2012-10-27 12:15:00
7:35 AM,30.2,24.8,80,30.33,10.0,NW,4.6,-,N/A,,Clear,320,2012-10-27 12:35:00
7:55 AM,32.0,24.8,75,30.34,10.0,NW,4.6,-,N/A,,Clear,310,2012-10-27 12:55:00
8:15 AM,32.0,26.6,80,30.34,10.0,NW,4.6,-,N/A,,Clear,310,2012-10-27 13:15:00
8:35 AM,32.0,26.6,80,30.35,10.0,NW,5.8,-,N/A,,Clear,310,2012-10-27 13:35:00
8:55 AM,33.8,26.6,75,30.34,10.0,NNW,6.9,-,N/A,,Clear,330,2012-10-27 13:55:00
9:15 AM,35.6,28.4,75,30.34,10.0,NNW,6.9,-,N/A,,Clear,330,2012-10-27 14:15:00
9:35 AM,35.6,26.6,70,30.34,10.0,NW,5.8,-,N/A,,Clear,320,2012-10-27 14:35:00
9:55 AM,37.4,26.6,65,30.34,10.0,North,9.2,-,N/A,,Clear,350,2012-10-27 14:55:00
10:15 AM,39.2,26.6,61,30.34,10.0,North,9.2,-,N/A,,Clear,350,2012-10-27 15:15:00
10:55 AM,39.2,23.0,52,30.33,10.0,WNW,10.4,-,N/A,,Clear,300,2012-10-27 15:55:00
11:15 AM,41.0,24.8,53,30.32,10.0,NW,10.4,16.1,N/A,,Clear,310,2012-10-27 16:15:00
11:35 AM,41.0,24.8,53,30.31,10.0,NNW,10.4,17.3,N/A,,Clear,330,2012-10-27 16:35:00
11:55 AM,41.0,23.0,49,30.31,10.0,NNW,9.2,-,N/A,,Clear,340,2012-10-27 16:55:00
12:15 PM,41.0,23.0,49,30.30,10.0,North,12.7,16.1,N/A,,Scattered Clouds,350,2012-10-27 17:15:00
12:35 PM,41.0,21.2,45,30.30,10.0,WNW,6.9,19.6,N/A,,Scattered Clouds,300,2012-10-27 17:35:00
1:15 PM,42.8,23.0,46,30.30,10.0,NW,12.7,-,N/A,,Scattered Clouds,320,2012-10-27 18:15:00
1:55 PM,42.8,23.0,46,30.28,10.0,NW,10.4,-,N/A,,Scattered Clouds,320,2012-10-27 18:55:00
2:15 PM,42.8,21.2,42,30.28,10.0,NNW,10.4,-,N/A,,Scattered Clouds,340,2012-10-27 19:15:00
2:35 PM,42.8,21.2,42,30.28,10.0,NNW,10.4,18.4,N/A,,Scattered Clouds,330,2012-10-27 19:35:00
2:55 PM,42.8,21.2,42,30.28,10.0,NW,16.1,20.7,N/A,,Clear,320,2012-10-27 19:55:00
3:15 PM,42.8,21.2,42,30.28,10.0,NNW,9.2,-,N/A,,Clear,340,2012-10-27 20:15:00
3:35 PM,42.8,19.4,39,30.28,10.0,North,10.4,-,N/A,,Clear,350,2012-10-27 20:35:00
3:55 PM,42.8,21.2,42,30.28,10.0,NNW,10.4,-,N/A,,Clear,340,2012-10-27 20:55:00
4:15 PM,42.8,21.2,42,30.27,10.0,NNW,8.1,-,N/A,,Clear,340,2012-10-27 21:15:00
4:35 PM,41.0,21.2,45,30.27,10.0,NNW,10.4,-,N/A,,Clear,340,2012-10-27 21:35:00
4:55 PM,41.0,19.4,42,30.28,10.0,North,5.8,-,N/A,,Clear,350,2012-10-27 21:55:00
5:15 PM,41.0,17.6,39,30.28,10.0,NNW,5.8,-,N/A,,Clear,340,2012-10-27 22:15:00
5:35 PM,39.2,17.6,42,30.28,10.0,NNW,6.9,-,N/A,,Clear,340,2012-10-27 22:35:00
6:15 PM,37.4,19.4,48,30.28,10.0,NNW,3.5,-,N/A,,Clear,330,2012-10-27 23:15:00
6:35 PM,37.4,19.4,48,30.28,10.0,North,3.5,-,N/A,,Clear,350,2012-10-27 23:35:00
6:55 PM,35.6,19.4,52,30.29,10.0,NNW,3.5,-,N/A,,Clear,330,2012-10-27 23:55:00
7:15 PM,35.6,19.4,52,30.30,10.0,North,3.5,-,N/A,,Clear,350,2012-10-28 00:15:00
7:35 PM,33.8,21.2,60,30.29,10.0,Calm,Calm,-,N/A,,Clear,0,2012-10-28 00:35:00
7:55 PM,32.0,23.0,69,30.29,10.0,Calm,Calm,-,N/A,,Clear,0,2012-10-28 00:55:00
8:15 PM,32.0,23.0,69,30.29,10.0,Calm,Calm,-,N/A,,Clear,0,2012-10-28 01:15:00
8:35 PM,32.0,26.6,80,30.30,10.0,Calm,Calm,-,N/A,,Clear,0,2012-10-28 01:35:00
8:55 PM,32.0,26.6,80,30.30,10.0,Calm,Calm,-,N/A,,Clear,0,2012-10-28 01:55:00
9:15 PM,32.0,24.8,75,30.30,10.0,Calm,Calm,-,N/A,,Clear,0,2012-10-28 02:15:00
9:35 PM,32.0,23.0,69,30.30,10.0,Calm,Calm,-,N/A,,Clear,0,2012-10-28 02:35:00
9:55 PM,32.0,26.6,80,30.31,10.0,Calm,Calm,-,N/A,,Clear,0,2012-10-28 02:55:00
10:35 PM,32.0,21.2,64,30.30,10.0,NNW,4.6,-,N/A,,Clear,340,2012-10-28 03:35:00
10:55 PM,33.8,21.2,60,30.30,10.0,NNW,4.6,-,N/A,,Clear,330,2012-10-28 03:55:00
11:15 PM,33.8,21.2,60,30.30,10.0,NNW,3.5,-,N/A,,Clear,330,2012-10-28 04:15:00
11:35 PM,32.0,21.2,64,30.30,10.0,NNW,3.5,-,N/A,,Clear,340,2012-10-28 04:35:00
11:55 PM,32.0,23.0,69,30.30,10.0,NW,4.6,-,N/A,,Clear,320,2012-10-28 04:55:00